Flag for Western Sahara Weather past 2 weeks in Smara, Western Sahara

Now
64 °F

Sunny.


Feels Like: 64 °F
Forecast: 60 / 92 °F
Wind: 12 mph from Northeast

Location: Laayoune/Hassan Isl

Current Time: Mar 29, 2015 at 10:07:06 PM

Latest Report: Mar 29, 2015 at 9:00 PM


Visibility: 10 mi

Pressure: 30.21 "Hg

Humidity: 78%

Dew point: 57 °F

Location of SmaraLocation

Historic Weather in Smara — Graph

°F

Smara temperature yesterday

Maximum temperature yesterday: 79 °F (at 2:00 PM)
Minimum temperature yesterday: 54 °F (at 6:00 AM)
Average temperature yesterday: 64 °F

Past Weeks' High & Low Weather Summary

 TemperatureHumidityPressure
High79 °F (Mar 28, 2:00 PM)94% (Mar 22, 4:00 AM)30.30 "Hg (Mar 22, 4:00 AM)
Low50 °F (Mar 21, 5:00 AM)36% (Mar 17, 3:00 PM)29.80 "Hg (Mar 22, 3:00 PM)
Average62 °F68%30.05 "Hg
* Reported Mar 14 8:00 PM — Mar 29 9:00 PM, Smara, Weather by CustomWeather, © 2015

Note: Actual official high and low records may vary slightly from our data, if they occured in-between our weather recording intervals... More about our weather records

Advertising

Smara weather history for previous 24 hours

 ConditionsComfort  
Time TempWeatherWind HumidityBarometerVisibility
9:00 PM
Sun, Mar 29
64 °FSunny.12 mph78%30.21 "Hg10 mi
8:00 PM66 °FSunny.14 mph73%30.18 "Hg10 mi
7:00 PM70 °FPassing clouds.13 mph64%30.18 "HgN/A
6:00 PM72 °FScattered clouds.14 mph61%30.18 "HgN/A
5:00 PM73 °FScattered clouds.13 mph61%30.18 "HgN/A
4:00 PM75 °FScattered clouds.5 mph50%30.18 "HgN/A
3:00 PM73 °FPartly sunny.6 mph57%30.21 "HgN/A
2:00 PM68 °FPartly sunny.9 mph69%30.24 "HgN/A
1:00 PM66 °FOvercast.10 mph73%30.27 "HgN/A
12:00 PM64 °FOvercast.13 mph78%30.27 "HgN/A
11:00 AM63 °FOvercast.14 mph77%30.27 "HgN/A
10:00 AM63 °FOvercast.14 mph77%30.27 "HgN/A
9:00 AM61 °FOvercast.14 mph83%30.24 "HgN/A
8:00 AM61 °FPartly cloudy.10 mph83%30.24 "Hg5 mi
7:00 AM61 °FPassing clouds.9 mph83%30.24 "Hg5 mi
6:00 AM61 °FPassing clouds.12 mph83%30.21 "Hg5 mi
5:00 AM61 °FPassing clouds.10 mph83%30.21 "Hg5 mi
4:00 AM61 °FPassing clouds.12 mph83%30.24 "Hg5 mi
3:00 AM61 °FPassing clouds.12 mph77%30.24 "Hg5 mi
1:00 AM61 °FPassing clouds.20 mph83%30.27 "Hg5 mi
12:00 AM61 °FPassing clouds.16 mph83%30.27 "Hg5 mi
11:00 PM
Sat, Mar 28
61 °FPassing clouds.23 mph83%30.27 "Hg5 mi
10:00 PM61 °FPassing clouds.13 mph83%30.27 "HgN/A
Weather by CustomWeather, © 2015

See weather overviewHow to use our weather pages